Rotterdam, Netherlands

2:56 PM CEST on August 17, 2017 (GMT +0200)
Rotterdam

Weather History for EHRD - October, 2011

Change the Weather History Date:

Saturday, October 1, 2011

  Actual Average Record
Temperature  
Mean Temperature 64 °F -  
Max Temperature 78 °F 56 °F 78 °F (2011)
Min Temperature 49 °F 45 °F 41 °F (2013)
Degree Days  
Heating Degree Days 2    
Growing Degree Days 14 (Base 50)    
Moisture  
Dew Point 56 °F    
Average Humidity 82    
Maximum Humidity 100    
Minimum Humidity 39    
Precipitation  
Precipitation 0.00 in - - ()
Sea Level Pressure  
Sea Level Pressure 30.28 in    
Wind  
Wind Speed 1 mph ()    
Max Wind Speed 5 mph    
Max Gust Speed -    
Visibility 3.3 miles    
Events Fog    
Averages and records for this station are not official NWS values.
T = Trace of Precipitation, MM = Missing Value Source: Averaged Metar Reports

Daily Weather History Graph

Daily Weather History Graph

Search for Another Location

Airport or City:

Trip Planner

Search our weather history database for the weather conditions in past years. The results will help you decide how hot, cold, wet, or windy it might be!

Date:

Astronomy

Oct. 01, 2011 Rise Set
Actual Time 7:42 AM CEST 7:20 PM CEST
Civil Twilight 7:08 AM CEST 7:54 PM CEST
Nautical Twilight 6:29 AM CEST 8:33 PM CEST
Astronomical Twilight 5:49 AM CEST 9:13 PM CEST
Moon 1:14 PM CEST (10/1) 9:19 PM CEST (10/1)
Length of Visible Light 12h 45m
Length of Day
11h 38m
Waxing Crescent, 21% of the Moon is Illuminated
Oct 1
Waxing Crescent
Oct 4
First Quarter
Oct 12
Full
Oct 20
Last Quarter
Oct 26
New

Hourly Weather History & Observations

Time (CEST) Temp. Dew Point Humidity Pressure Visibility Wind Dir Wind Speed Gust Speed Precip Events Conditions
12:25 AM 55.4 °F 53.6 °F 94% 30.27 in 3.7 mi Calm Calm - N/A   Unknown
12:55 AM 55.4 °F 53.6 °F 94% 30.27 in - Calm Calm - N/A   Mist
1:25 AM 57.2 °F 55.4 °F 94% 30.27 in - NNW 1.2 mph - N/A   Mist
1:55 AM 55.4 °F 53.6 °F 94% 30.27 in 0.6 mi Calm Calm - N/A   Partly Cloudy
2:00 AM 56 °F 54 °F 92% 30.28 in 0 mi Calm Calm - - Fog Fog
2:25 AM 55.4 °F 53.6 °F 94% 30.27 in 1.3 mi North 2.3 mph - N/A   Mist
2:55 AM 53.6 °F 51.8 °F 94% 30.27 in 1.0 mi East 2.3 mph - N/A   Mist
3:25 AM 53.6 °F 53.6 °F 100% 30.27 in 1.4 mi East 1.2 mph - N/A   Mist
3:55 AM 53.6 °F 51.8 °F 94% 30.27 in - Calm Calm - N/A   Mist
4:25 AM 51.8 °F 51.8 °F 100% 30.27 in 0.7 mi Calm Calm - N/A   Mist
4:55 AM 53.6 °F 51.8 °F 94% 30.27 in - Calm Calm - N/A   Mist
5:00 AM 53 °F 52 °F 95% 30.27 in 2 mi Calm Calm - - Fog Fog
5:25 AM 51.8 °F 51.8 °F 100% 30.27 in 1.7 mi East 1.2 mph - N/A   Mostly Cloudy
5:55 AM 51.8 °F 51.8 °F 100% 30.27 in 3.1 mi Calm Calm - N/A   Scattered Clouds
6:25 AM 53.6 °F 51.8 °F 94% 30.27 in 1.9 mi Calm Calm - N/A   Mist
6:55 AM 50.0 °F 50.0 °F 100% 30.27 in 1.6 mi ENE 2.3 mph - N/A   Mist
7:25 AM 51.8 °F 51.8 °F 100% 30.27 in 3.1 mi Variable 2.3 mph - N/A   Mist
7:55 AM 51.8 °F 50.0 °F 94% 30.27 in 1.7 mi East 1.2 mph - N/A   Mist
8:00 AM 50 °F 49 °F 96% 30.29 in 3 mi Calm Calm - -   Mist
8:25 AM 51.8 °F 50.0 °F 94% 30.27 in - East 1.2 mph - N/A   Mist
8:55 AM 53.6 °F 53.6 °F 100% 30.27 in 2.5 mi Variable 2.3 mph - N/A   Mist
9:25 AM 57.2 °F 55.4 °F 94% 30.30 in - NNW 1.2 mph - N/A   Mist
9:55 AM 60.8 °F 59.0 °F 94% 30.30 in 3.7 mi Variable 1.2 mph - N/A   Unknown
10:25 AM 64.4 °F 64.4 °F 100% 30.30 in 3.7 mi Calm Calm - N/A   Unknown
10:55 AM 69.8 °F 66.2 °F 88% 30.30 in 4.3 mi Variable 2.3 mph - N/A   Unknown
11:25 AM 69.8 °F 62.6 °F 78% 30.30 in 4.3 mi East 3.5 mph - N/A   Unknown
11:55 AM 73.4 °F 60.8 °F 65% 30.30 in 4.3 mi Variable 2.3 mph - N/A   Unknown
12:25 PM 73.4 °F 60.8 °F 65% 30.30 in 4.3 mi Variable 2.3 mph - N/A   Unknown
12:55 PM 75.2 °F 60.8 °F 61% 30.30 in 5.6 mi Variable 2.3 mph - N/A   Unknown
1:25 PM 75.2 °F 60.8 °F 61% 30.30 in 5.6 mi East 3.5 mph - N/A   Unknown
1:55 PM 75.2 °F 60.8 °F 61% 30.30 in 5.6 mi SE 4.6 mph - N/A   Unknown
2:00 PM 77 °F 61 °F 48% 30.31 in 4 mi ESE 2.2 mph - -   Light Haze
2:25 PM 77.0 °F 60.8 °F 57% 30.30 in 6.2 mi Variable 2.3 mph - N/A   Unknown
2:55 PM 77.0 °F 57.2 °F 50% 30.27 in 6.2 mi Variable 1.2 mph - N/A   Unknown
3:25 PM 77.0 °F 60.8 °F 57% 30.27 in 6.2 mi SSE 3.5 mph - N/A   Unknown
3:55 PM 77.0 °F 60.8 °F 57% 30.27 in 6.2 mi Variable 1.2 mph - N/A   Unknown
4:25 PM 78.8 °F 59.0 °F 51% 30.27 in 6.2 mi Variable 1.2 mph - N/A   Unknown
4:55 PM 78.8 °F 59.0 °F 51% 30.27 in 6.2 mi NNW 1.2 mph - N/A   Unknown
5:00 PM 78 °F 58 °F 39% 30.29 in 7 mi Calm Calm - -  
5:25 PM 77.0 °F 59.0 °F 54% 30.27 in 6.2 mi Variable 2.3 mph - N/A   Unknown
5:55 PM 77.0 °F 59.0 °F 54% 30.27 in 6.2 mi NW 1.2 mph - N/A   Unknown
6:25 PM 71.6 °F 59.0 °F 64% 30.27 in 5.6 mi North 4.6 mph - N/A   Unknown
6:55 PM 69.8 °F 59.0 °F 68% 30.27 in 4.3 mi North 3.5 mph - N/A   Unknown
7:25 PM 68.0 °F 60.8 °F 78% 30.30 in 1.1 mi NNE 3.5 mph - N/A   Haze
7:55 PM 66.2 °F 59.0 °F 78% 30.30 in 1.2 mi NNE 2.3 mph - N/A   Haze
8:00 PM 63 °F 56 °F 73% 30.30 in 2 mi 2.2 mph - -   Light Haze
8:25 PM 62.6 °F 59.0 °F 88% 30.30 in 3.1 mi East 1.2 mph - N/A   Mist
8:55 PM 62.6 °F 59.0 °F 88% 30.30 in - NNE 1.2 mph - N/A   Mist
9:25 PM 59.0 °F 57.2 °F 94% 30.30 in 1.6 mi NNE 2.3 mph - N/A   Mist
9:55 PM 57.2 °F 55.4 °F 94% 30.30 in 0.9 mi Variable 2.3 mph - N/A   Mist
10:25 PM 57.2 °F 55.4 °F 94% 30.30 in 0.9 mi NW 1.2 mph - N/A   Mist
10:55 PM 57.2 °F 55.4 °F 94% 30.30 in - NW 1.2 mph - N/A Fog Fog
11:00 PM 56 °F 54 °F 93% 30.32 in 0 mi Calm Calm - - Fog Fog
11:25 PM 57.2 °F 55.4 °F 94% 30.30 in - NW 1.2 mph - N/A Fog Fog
11:55 PM 55.4 °F 53.6 °F 94% 30.30 in 1.1 mi NW 1.2 mph - N/A   Mist